| time (UTC) | temp F | wind direction | speed MPH | gust MPH | rain 1hr in | rain 24hr in | rain mn in | humidity % | barometer mb |
| 20260903223605 | 65 | 228 | 0.0 | 3.0 | 0.01 | 0.63 | 0.55 | 73 | 1006.8 |
| 20260903223104 | 65 | 228 | 1.0 | 3.0 | 0.01 | 0.63 | 0.55 | 72 | 1006.9 |
| 20260903222605 | 65 | 228 | 0.0 | 3.0 | 0.00 | 0.62 | 0.54 | 71 | 1006.8 |
| 20260903222105 | 65 | 228 | 1.0 | 3.0 | 0.00 | 0.62 | 0.54 | 72 | 1006.7 |
| 20260903221104 | 65 | 226 | 1.0 | 5.0 | 0.00 | 0.62 | 0.54 | 70 | 1006.8 |
| 20260903220605 | 65 | 195 | 2.0 | 5.0 | 0.00 | 0.62 | 0.54 | 71 | 1006.8 |
| 20260903220104 | 65 | 223 | 0.0 | 3.0 | 0.00 | 0.62 | 0.54 | 71 | 1006.8 |
| 20260903215604 | 65 | 223 | 2.0 | 6.0 | 0.00 | 0.62 | 0.54 | 69 | 1006.8 |
| 20260903215105 | 65 | 223 | 2.0 | 6.0 | 0.00 | 0.62 | 0.54 | 70 | 1006.7 |
| 20260903214605 | 65 | 220 | 1.0 | 9.0 | 0.00 | 0.62 | 0.54 | 72 | 1006.7 |
| 20260903214105 | 65 | 217 | 3.0 | 9.0 | 0.00 | 0.62 | 0.54 | 71 | 1006.7 |
| 20260903213605 | 65 | 199 | 3.0 | 6.0 | 0.00 | 0.62 | 0.54 | 72 | 1006.6 |
| 20260903213106 | 64 | 232 | 2.0 | 5.0 | 0.00 | 0.62 | 0.54 | 73 | 1006.7 |
| 20260903212606 | 64 | 202 | 2.0 | 6.0 | 0.00 | 0.62 | 0.54 | 74 | 1006.7 |
| 20260903212106 | 63 | 198 | 2.0 | 6.0 | 0.00 | 0.62 | 0.54 | 73 | 1006.7 |
| 20260903211605 | 63 | 223 | 2.0 | 6.0 | 0.00 | 0.62 | 0.54 | 74 | 1006.8 |
| 20260903211104 | 63 | 215 | 2.0 | 6.0 | 0.00 | 0.62 | 0.54 | 74 | 1006.6 |
| 20260903210605 | 63 | 221 | 3.0 | 6.0 | 0.00 | 0.62 | 0.54 | 74 | 1006.7 |
| 20260903210104 | 63 | 227 | 2.0 | 6.0 | 0.00 | 0.62 | 0.54 | 74 | 1006.6 |
| 20260903205604 | 63 | 197 | 3.0 | 6.0 | 0.00 | 0.62 | 0.54 | 75 | 1006.6 |
| 20260903205109 | 63 | 195 | 3.0 | 6.0 | 0.00 | 0.62 | 0.54 | 76 | 1006.6 |
| 20260903204606 | 63 | 195 | 2.0 | 6.0 | 0.00 | 0.62 | 0.54 | 77 | 1006.6 |
| 20260903203606 | 63 | 223 | 2.0 | 6.0 | 0.00 | 0.62 | 0.54 | 77 | 1006.4 |
| 20260903203105 | 63 | 195 | 3.0 | 6.0 | 0.00 | 0.62 | 0.54 | 78 | 1006.5 |
| 20260903202605 | 63 | 218 | 2.0 | 5.0 | 0.00 | 0.62 | 0.54 | 78 | 1006.5 |
| 20260903202106 | 62 | 228 | 2.0 | 6.0 | 0.00 | 0.63 | 0.54 | 78 | 1006.4 |
| 20260903201606 | 62 | 220 | 2.0 | 9.0 | 0.00 | 0.63 | 0.54 | 80 | 1006.4 |
| 20260903201104 | 62 | 222 | 3.0 | 9.0 | 0.00 | 0.65 | 0.54 | 82 | 1006.4 |
| 20260903200604 | 62 | 195 | 2.0 | 5.0 | 0.00 | 0.66 | 0.54 | 83 | 1006.4 |
| 20260903200104 | 62 | 204 | 2.0 | 6.0 | 0.00 | 0.66 | 0.54 | 84 | 1006.3 |
| 20260903195604 | 61 | 225 | 2.0 | 12.0 | 0.00 | 0.67 | 0.54 | 86 | 1006.4 |
| 20260903194104 | 60 | 230 | 1.0 | 6.0 | 0.00 | 0.69 | 0.54 | 89 | 1006.4 |
| 20260903193606 | 60 | 220 | 2.0 | 9.0 | 0.00 | 0.70 | 0.54 | 90 | 1006.4 |
| 20260903193105 | 60 | 204 | 3.0 | 9.0 | 0.00 | 0.70 | 0.54 | 90 | 1006.4 |
| 20260903192605 | 60 | 197 | 2.0 | 8.0 | 0.00 | 0.70 | 0.54 | 91 | 1006.3 |
| 20260903191604 | 60 | 195 | 2.0 | 6.0 | 0.00 | 0.72 | 0.54 | 91 | 1006.2 |
| 20260903191106 | 60 | 220 | 2.0 | 10.0 | 0.00 | 0.72 | 0.54 | 92 | 1006.3 |
| 20260903190606 | 60 | 195 | 2.0 | 10.0 | 0.00 | 0.73 | 0.54 | 92 | 1006.2 |
| 20260903184604 | 59 | 213 | 1.0 | 6.0 | 0.00 | 0.73 | 0.54 | 92 | 1006.3 |
| 20260903184106 | 59 | 195 | 2.0 | 6.0 | 0.01 | 0.73 | 0.54 | 92 | 1006.3 |
| 20260903183606 | 59 | 228 | 1.0 | 6.0 | 0.01 | 0.74 | 0.54 | 92 | 1006.3 |
| 20260903183106 | 59 | 209 | 2.0 | 6.0 | 0.01 | 0.76 | 0.54 | 92 | 1006.3 |
| 20260903182605 | 58 | 228 | 1.0 | 5.0 | 0.01 | 0.77 | 0.54 | 92 | 1006.4 |
| 20260903182105 | 58 | 220 | 2.0 | 5.0 | 0.01 | 0.77 | 0.54 | 92 | 1006.4 |
| 20260903181611 | 56 | 222 | 2.0 | 3.0 | 0.02 | 0.77 | 0.54 | 92 | 1006.3 |
| 20260903181105 | 55 | 216 | 1.0 | 5.0 | 0.02 | 0.77 | 0.54 | 92 | 1006.3 |
| 20260903180604 | 55 | 217 | 1.0 | 5.0 | 0.02 | 0.78 | 0.54 | 91 | 1006.4 |
| 20260903180105 | 55 | 227 | 1.0 | 5.0 | 0.02 | 0.78 | 0.54 | 91 | 1006.4 |
| 20260903175604 | 55 | 226 | 1.0 | 3.0 | 0.02 | 0.79 | 0.54 | 92 | 1006.4 |
| 20260903174604 | 55 | 216 | 2.0 | 8.0 | 0.02 | 0.80 | 0.54 | 91 | 1006.5 |
| 20260903174104 | 55 | 215 | 1.0 | 6.0 | 0.01 | 0.79 | 0.53 | 91 | 1006.4 |
| 20260903173605 | 55 | 199 | 1.0 | 6.0 | 0.01 | 0.79 | 0.53 | 91 | 1006.5 |
| 20260903173104 | 55 | 218 | 1.0 | 6.0 | 0.01 | 0.79 | 0.53 | 91 | 1006.4 |
| 20260903172105 | 55 | 195 | 1.0 | 5.0 | 0.02 | 0.80 | 0.53 | 91 | 1006.4 |
| 20260903171605 | 55 | 195 | 2.0 | 7.0 | 0.02 | 0.80 | 0.52 | 91 | 1006.3 |
| 20260903170104 | 55 | 216 | 2.0 | 5.0 | 0.03 | 0.83 | 0.52 | 91 | 1006.2 |
| 20260903165604 | 55 | 208 | 2.0 | 5.0 | 0.03 | 0.84 | 0.52 | 92 | 1006.2 |
| 20260903165104 | 55 | 223 | 1.0 | 5.0 | 0.03 | 0.85 | 0.52 | 92 | 1006.2 |
| 20260903164605 | 55 | 229 | 1.0 | 3.0 | 0.03 | 0.86 | 0.52 | 92 | 1006.2 |
| 20260903164104 | 55 | 225 | 1.0 | 3.0 | 0.03 | 0.87 | 0.52 | 91 | 1006.2 |
| 20260903163604 | 55 | 225 | 2.0 | 6.0 | 0.03 | 0.88 | 0.52 | 91 | 1006.2 |
| 20260903163104 | 55 | 201 | 2.0 | 6.0 | 0.03 | 0.90 | 0.52 | 91 | 1006.2 |
| 20260903162604 | 55 | 225 | 1.0 | 6.0 | 0.03 | 0.92 | 0.52 | 92 | 1006.1 |
| 20260903162104 | 55 | 224 | 1.0 | 6.0 | 0.02 | 0.92 | 0.51 | 92 | 1006.1 |
| 20260903161104 | 56 | 226 | 1.0 | 3.0 | 0.00 | 0.93 | 0.49 | 92 | 1006.1 |
| 20260903160104 | 56 | 229 | 2.0 | 5.0 | 0.00 | 0.95 | 0.49 | 92 | 1006.1 |
| 20260903155604 | 56 | 222 | 1.0 | 3.0 | 0.00 | 0.95 | 0.49 | 92 | 1006.1 |
| 20260903154603 | 56 | 225 | 0.0 | 5.0 | 0.00 | 0.95 | 0.49 | 92 | 1006.1 |
| 20260903154104 | 56 | 195 | 1.0 | 3.0 | 0.00 | 0.95 | 0.49 | 92 | 1006.1 |
| 20260903153606 | 56 | 247 | 1.0 | 3.0 | 0.00 | 0.96 | 0.49 | 92 | 1005.9 |
| 20260903152604 | 56 | 226 | 1.0 | 3.0 | 0.00 | 0.98 | 0.49 | 92 | 1005.8 |
| 20260903152105 | 56 | 226 | 1.0 | 3.0 | 0.00 | 0.98 | 0.49 | 92 | 1005.8 |
| 20260903151104 | 55 | 224 | 0.0 | 3.0 | 0.00 | 1.01 | 0.49 | 92 | 1005.8 |
| 20260903150605 | 55 | 224 | 2.0 | 3.0 | 0.00 | 1.04 | 0.49 | 92 | 1005.8 |
| 20260903150104 | 55 | 224 | 0.0 | 3.0 | 0.00 | 1.05 | 0.49 | 92 | 1005.7 |
| 20260903145604 | 55 | 224 | 1.0 | 3.0 | 0.00 | 1.07 | 0.49 | 92 | 1005.6 |
| 20260903145106 | 55 | 226 | 0.0 | 3.0 | 0.00 | 1.08 | 0.49 | 91 | 1005.6 |
| 20260903144604 | 55 | 226 | 0.0 | 3.0 | 0.00 | 1.08 | 0.49 | 91 | 1005.6 |
| 20260903144104 | 55 | 231 | 0.0 | 3.0 | 0.00 | 1.10 | 0.49 | 91 | 1005.7 |
| 20260903143604 | 55 | 231 | 0.0 | 3.0 | 0.00 | 1.12 | 0.49 | 91 | 1005.7 |
| 20260903143105 | 55 | 231 | 1.0 | 3.0 | 0.00 | 1.13 | 0.49 | 91 | 1005.6 |
| 20260903142604 | 55 | 231 | 1.0 | 3.0 | 0.00 | 1.13 | 0.49 | 91 | 1005.5 |
| 20260903142104 | 55 | 231 | 1.0 | 3.0 | 0.00 | 1.14 | 0.49 | 91 | 1005.5 |
| 20260903141104 | 55 | 223 | 1.0 | 2.0 | 0.00 | 1.16 | 0.49 | 91 | 1005.4 |
| 20260903140604 | 55 | 223 | 0.0 | 2.0 | 0.00 | 1.17 | 0.49 | 91 | 1005.3 |
| 20260903135604 | 55 | 223 | 1.0 | 3.0 | 0.00 | 1.17 | 0.49 | 91 | 1005.3 |
| 20260903135104 | 55 | 223 | 1.0 | 3.0 | 0.00 | 1.17 | 0.49 | 91 | 1005.2 |
| 20260903134604 | 54 | 223 | 1.0 | 3.0 | 0.00 | 1.17 | 0.49 | 91 | 1005.1 |
| 20260903134104 | 54 | 221 | 1.0 | 3.0 | 0.00 | 1.17 | 0.49 | 91 | 1005.0 |
| 20260903133604 | 54 | 232 | 1.0 | 3.0 | 0.00 | 1.17 | 0.49 | 91 | 1005.0 |
| 20260903133104 | 54 | 202 | 0.0 | 3.0 | 0.01 | 1.17 | 0.49 | 91 | 1005.0 |
| 20260903132605 | 54 | 195 | 1.0 | 3.0 | 0.01 | 1.17 | 0.49 | 91 | 1005.0 |
| 20260903131604 | 55 | 233 | 1.0 | 8.0 | 0.02 | 1.17 | 0.49 | 91 | 1005.0 |
| 20260903131104 | 55 | 228 | 1.0 | 8.0 | 0.03 | 1.17 | 0.49 | 91 | 1005.0 |
| 20260903130605 | 55 | 195 | 2.0 | 5.0 | 0.03 | 1.17 | 0.49 | 91 | 1005.0 |
| 20260903130105 | 55 | 231 | 2.0 | 3.0 | 0.03 | 1.17 | 0.49 | 91 | 1005.1 |
| 20260903125605 | 55 | 195 | 1.0 | 3.0 | 0.05 | 1.17 | 0.49 | 91 | 1005.1 |
| 20260903125107 | 55 | 219 | 1.0 | 3.0 | 0.06 | 1.17 | 0.49 | 91 | 1005.1 |
| 20260903124606 | 55 | 219 | 1.0 | 3.0 | 0.07 | 1.17 | 0.49 | 91 | 1005.0 |
| 20260903124108 | 55 | 221 | 2.0 | 3.0 | 0.09 | 1.17 | 0.49 | 91 | 1004.9 |
| 20260903123604 | 55 | 224 | 1.0 | 3.0 | 0.11 | 1.17 | 0.49 | 91 | 1004.8 |
| 20260903123106 | 55 | 223 | 1.0 | 5.0 | 0.14 | 1.16 | 0.48 | 91 | 1004.7 |
| 20260903122604 | 55 | 231 | 2.0 | 5.0 | 0.15 | 1.16 | 0.48 | 91 | 1004.8 |
| 20260903122104 | 55 | 222 | 1.0 | 3.0 | 0.14 | 1.15 | 0.47 | 91 | 1004.9 |
| 20260903121604 | 55 | 220 | 1.0 | 3.0 | 0.14 | 1.15 | 0.47 | 91 | 1005.1 |
| 20260903121104 | 55 | 195 | 1.0 | 3.0 | 0.13 | 1.14 | 0.46 | 91 | 1005.1 |
| 20260903120103 | 56 | 195 | 1.0 | 5.0 | 0.13 | 1.14 | 0.46 | 91 | 1005.0 |
| 20260903115604 | 56 | 228 | 0.0 | 5.0 | 0.11 | 1.12 | 0.44 | 91 | 1005.1 |
| 20260903115103 | 56 | 227 | 1.0 | 5.0 | 0.10 | 1.11 | 0.43 | 91 | 1005.2 |
| 20260903114605 | 56 | 227 | 1.0 | 3.0 | 0.09 | 1.10 | 0.42 | 91 | 1005.1 |
| 20260903114104 | 56 | 223 | 1.0 | 3.0 | 0.08 | 1.08 | 0.40 | 91 | 1005.1 |
| 20260903113605 | 56 | 195 | 0.0 | 3.0 | 0.06 | 1.06 | 0.38 | 91 | 1005.3 |
| 20260903113106 | 56 | 195 | 1.0 | 3.0 | 0.02 | 1.02 | 0.34 | 91 | 1005.1 |
| 20260903112611 | 56 | 195 | 0.0 | 2.0 | 0.01 | 1.01 | 0.33 | 91 | 1004.9 |
| 20260903112104 | 56 | 240 | 0.0 | 3.0 | 0.02 | 1.01 | 0.33 | 91 | 1004.8 |
| 20260903111604 | 56 | 235 | 1.0 | 3.0 | 0.02 | 1.01 | 0.33 | 91 | 1004.8 |
| 20260903111103 | 56 | 199 | 0.0 | 3.0 | 0.02 | 1.01 | 0.33 | 91 | 1004.9 |
| 20260903110605 | 56 | 195 | 0.0 | 3.0 | 0.02 | 1.01 | 0.33 | 91 | 1004.8 |
| 20260903110103 | 56 | 195 | 0.0 | 3.0 | 0.02 | 1.01 | 0.33 | 91 | 1004.7 |
| 20260903105603 | 56 | 222 | 1.0 | 3.0 | 0.02 | 1.01 | 0.33 | 91 | 1004.7 |
| 20260903105105 | 56 | 222 | 0.0 | 3.0 | 0.03 | 1.01 | 0.33 | 91 | 1004.8 |
| 20260903104104 | 56 | 222 | 0.0 | 3.0 | 0.02 | 1.00 | 0.32 | 91 | 1004.9 |
| 20260903103604 | 56 | 222 | 1.0 | 3.0 | 0.03 | 1.00 | 0.32 | 91 | 1004.9 |
| 20260903103104 | 56 | 218 | 0.0 | 3.0 | 0.03 | 1.00 | 0.32 | 91 | 1005.0 |
| 20260903102605 | 56 | 218 | 1.0 | 3.0 | 0.03 | 1.00 | 0.32 | 91 | 1004.8 |
| 20260903102103 | 56 | 218 | 0.0 | 3.0 | 0.02 | 0.99 | 0.31 | 91 | 1004.8 |
| 20260903101604 | 56 | 218 | 0.0 | 3.0 | 0.02 | 0.99 | 0.31 | 91 | 1004.8 |
| 20260903100104 | 56 | 218 | 0.0 | 3.0 | 0.05 | 0.99 | 0.31 | 90 | 1004.7 |
| 20260903095605 | 56 | 218 | 0.0 | 3.0 | 0.08 | 0.99 | 0.31 | 90 | 1004.8 |
| 20260903095103 | 56 | 218 | 0.0 | 3.0 | 0.09 | 0.98 | 0.30 | 90 | 1004.8 |
| 20260903094603 | 56 | 218 | 1.0 | 3.0 | 0.09 | 0.98 | 0.30 | 90 | 1004.7 |
| 20260903094104 | 56 | 218 | 1.0 | 3.0 | 0.09 | 0.98 | 0.30 | 90 | 1004.6 |
| 20260903093103 | 56 | 221 | 1.0 | 3.0 | 0.09 | 0.97 | 0.29 | 90 | 1004.7 |
| 20260903092104 | 56 | 221 | 1.0 | 3.0 | 0.10 | 0.97 | 0.29 | 90 | 1004.7 |
| 20260903091605 | 56 | 221 | 1.0 | 3.0 | 0.13 | 0.97 | 0.29 | 90 | 1004.8 |
| 20260903091106 | 55 | 221 | 1.0 | 3.0 | 0.16 | 0.97 | 0.29 | 90 | 1004.8 |
| 20260903090605 | 55 | 221 | 1.0 | 3.0 | 0.16 | 0.96 | 0.28 | 90 | 1004.9 |
| 20260903090105 | 55 | 220 | 1.0 | 3.0 | 0.14 | 0.94 | 0.26 | 90 | 1005.0 |
| 20260903085605 | 55 | 219 | 1.0 | 6.0 | 0.12 | 0.91 | 0.23 | 90 | 1004.9 |
| 20260903085105 | 56 | 219 | 2.0 | 6.0 | 0.11 | 0.89 | 0.21 | 90 | 1004.8 |
| 20260903084605 | 56 | 228 | 1.0 | 6.0 | 0.12 | 0.89 | 0.21 | 90 | 1004.9 |
| 20260903084105 | 56 | 213 | 1.0 | 5.0 | 0.17 | 0.89 | 0.21 | 90 | 1004.9 |
| 20260903083605 | 56 | 195 | 1.0 | 5.0 | 0.17 | 0.89 | 0.21 | 90 | 1005.0 |
| 20260903083105 | 56 | 195 | 1.0 | 3.0 | 0.16 | 0.88 | 0.20 | 90 | 1005.0 |
| 20260903082605 | 57 | 195 | 1.0 | 3.0 | 0.16 | 0.88 | 0.20 | 90 | 1005.1 |
| 20260903082104 | 57 | 195 | 1.0 | 8.0 | 0.15 | 0.87 | 0.19 | 90 | 1005.1 |
| 20260903081605 | 57 | 208 | 1.0 | 8.0 | 0.12 | 0.84 | 0.16 | 90 | 1005.1 |
| 20260903080605 | 57 | 195 | 3.0 | 5.0 | 0.10 | 0.80 | 0.12 | 90 | 1004.9 |
| 20260903075605 | 58 | 195 | 1.0 | 3.0 | 0.13 | 0.79 | 0.11 | 90 | 1004.9 |
| 20260903075107 | 58 | 195 | 1.0 | 5.0 | 0.15 | 0.78 | 0.10 | 90 | 1004.9 |
| 20260903074605 | 58 | 195 | 2.0 | 5.0 | 0.15 | 0.77 | 0.09 | 90 | 1004.9 |
| 20260903074104 | 58 | 195 | 2.0 | 3.0 | 0.10 | 0.72 | 0.04 | 90 | 1004.9 |
| 20260903073605 | 58 | 197 | 1.0 | 3.0 | 0.10 | 0.72 | 0.04 | 90 | 1004.8 |
| 20260903073106 | 58 | 195 | 1.0 | 3.0 | 0.10 | 0.72 | 0.04 | 90 | 1004.7 |
| 20260903072605 | 58 | 195 | 1.0 | 3.0 | 0.10 | 0.72 | 0.04 | 89 | 1004.8 |
| 20260903072105 | 58 | 195 | 1.0 | 3.0 | 0.10 | 0.72 | 0.04 | 89 | 1004.8 |
| 20260903071605 | 58 | 195 | 0.0 | 3.0 | 0.10 | 0.72 | 0.04 | 89 | 1004.8 |
| 20260903071109 | 58 | 195 | 1.0 | 3.0 | 0.10 | 0.71 | 0.03 | 90 | 1004.7 |
| 20260903070606 | 58 | 195 | 1.0 | 5.0 | 0.09 | 0.70 | 0.02 | 89 | 1004.8 |
| 20260903070107 | 58 | 195 | 2.0 | 5.0 | 0.07 | 0.68 | 0.00 | 89 | 1004.7 |
| 20260903065604 | 58 | 195 | 1.0 | 3.0 | 0.07 | 0.67 | 0.67 | 89 | 1004.8 |
| 20260903065105 | 58 | 195 | 1.0 | 5.0 | 0.04 | 0.64 | 0.64 | 89 | 1004.8 |
| 20260903064606 | 58 | 195 | 2.0 | 5.0 | 0.02 | 0.62 | 0.62 | 89 | 1004.8 |
| 20260903064105 | 58 | 213 | 2.0 | 5.0 | 0.02 | 0.62 | 0.62 | 89 | 1004.6 |
| 20260903063606 | 58 | 195 | 2.0 | 5.0 | 0.02 | 0.62 | 0.62 | 89 | 1004.6 |
| 20260903062605 | 58 | 195 | 1.0 | 3.0 | 0.02 | 0.62 | 0.62 | 89 | 1004.8 |
| 20260903062105 | 58 | 195 | 1.0 | 3.0 | 0.02 | 0.62 | 0.62 | 89 | 1004.8 |
| 20260903061605 | 58 | 195 | 0.0 | 3.0 | 0.02 | 0.62 | 0.62 | 89 | 1004.8 |
| 20260903061105 | 58 | 195 | 1.0 | 3.0 | 0.01 | 0.61 | 0.61 | 89 | 1004.7 |
| 20260903060604 | 58 | 195 | 1.0 | 3.0 | 0.01 | 0.61 | 0.61 | 89 | 1004.6 |
| 20260903060105 | 58 | 195 | 1.0 | 3.0 | 0.01 | 0.61 | 0.61 | 89 | 1004.7 |
| 20260903055604 | 58 | 202 | 1.0 | 3.0 | 0.00 | 0.60 | 0.60 | 89 | 1004.8 |
| 20260903055105 | 58 | 195 | 1.0 | 3.0 | 0.00 | 0.60 | 0.60 | 88 | 1004.8 |
| 20260903054605 | 58 | 202 | 2.0 | 3.0 | 0.00 | 0.60 | 0.60 | 88 | 1004.8 |
| 20260903054104 | 58 | 234 | 1.0 | 3.0 | 0.00 | 0.60 | 0.60 | 88 | 1004.9 |
| 20260903053606 | 58 | 195 | 1.0 | 3.0 | 0.00 | 0.60 | 0.60 | 88 | 1004.9 |
| 20260903053106 | 58 | 195 | 1.0 | 3.0 | 0.00 | 0.60 | 0.60 | 88 | 1005.0 |
| 20260903052606 | 58 | 195 | 1.0 | 3.0 | 0.00 | 0.60 | 0.60 | 88 | 1004.9 |
| 20260903052105 | 58 | 195 | 1.0 | 3.0 | 0.00 | 0.60 | 0.60 | 88 | 1004.9 |
| 20260903051605 | 58 | 195 | 1.0 | 3.0 | 0.00 | 0.60 | 0.60 | 88 | 1004.9 |
| 20260903051104 | 58 | 195 | 1.0 | 3.0 | 0.00 | 0.60 | 0.60 | 88 | 1004.8 |
| 20260903050605 | 58 | 195 | 2.0 | 3.0 | 0.00 | 0.60 | 0.60 | 88 | 1004.9 |
| 20260903045604 | 58 | 195 | 2.0 | 3.0 | 0.00 | 0.60 | 0.60 | 88 | 1004.9 |
| 20260903045105 | 58 | 195 | 1.0 | 3.0 | 0.00 | 0.60 | 0.60 | 88 | 1004.9 |
| 20260903044605 | 58 | 195 | 1.0 | 3.0 | 0.00 | 0.60 | 0.60 | 87 | 1004.9 |
| 20260903043106 | 58 | 195 | 0.0 | 3.0 | 0.00 | 0.60 | 0.60 | 87 | 1004.8 |
| 20260903042605 | 58 | 195 | 1.0 | 3.0 | 0.00 | 0.60 | 0.60 | 87 | 1004.7 |
| 20260903042105 | 58 | 195 | 0.0 | 2.0 | 0.00 | 0.60 | 0.60 | 87 | 1004.7 |
| 20260903041605 | 58 | 195 | 1.0 | 3.0 | 0.00 | 0.60 | 0.60 | 87 | 1004.7 |
| 20260903040605 | 58 | 229 | 1.0 | 3.0 | 0.00 | 0.60 | 0.60 | 86 | 1004.6 |
| 20260903040106 | 57 | 216 | 1.0 | 5.0 | 0.00 | 0.60 | 0.60 | 86 | 1004.6 |
| 20260903035105 | 57 | 195 | 0.0 | 3.0 | 0.00 | 0.60 | 0.60 | 85 | 1004.5 |
| 20260903034104 | 57 | 195 | 1.0 | 3.0 | 0.00 | 0.60 | 0.60 | 84 | 1004.4 |
| 20260903033605 | 57 | 195 | 0.0 | 3.0 | 0.00 | 0.60 | 0.60 | 84 | 1004.4 |
| 20260903033105 | 57 | 195 | 1.0 | 3.0 | 0.00 | 0.60 | 0.60 | 84 | 1004.4 |
| 20260903032605 | 57 | 195 | 1.0 | 3.0 | 0.00 | 0.60 | 0.60 | 84 | 1004.4 |
| 20260903031105 | 58 | 195 | 0.0 | 2.0 | 0.00 | 0.60 | 0.60 | 83 | 1004.5 |
| 20260903030605 | 58 | 195 | 0.0 | 3.0 | 0.00 | 0.60 | 0.60 | 83 | 1004.4 |
| 20260903030105 | 59 | 195 | 0.0 | 3.0 | 0.00 | 0.60 | 0.60 | 83 | 1004.4 |
| 20260903025104 | 59 | 195 | 1.0 | 6.0 | 0.00 | 0.60 | 0.60 | 83 | 1004.3 |
| 20260903024606 | 59 | 195 | 1.0 | 5.0 | 0.00 | 0.60 | 0.60 | 83 | 1004.4 |
| 20260903023606 | 59 | 195 | 1.0 | 3.0 | 0.00 | 0.60 | 0.60 | 82 | 1004.2 |
| 20260903023105 | 60 | 195 | 1.0 | 3.0 | 0.00 | 0.60 | 0.60 | 82 | 1004.2 |
| 20260903022605 | 60 | 195 | 1.0 | 3.0 | 0.00 | 0.60 | 0.60 | 82 | 1004.2 |
| 20260903022104 | 60 | 195 | 1.0 | 3.0 | 0.00 | 0.60 | 0.60 | 82 | 1004.3 |
| 20260903021605 | 60 | 195 | 1.0 | 5.0 | 0.00 | 0.60 | 0.60 | 82 | 1004.3 |
| 20260903021106 | 61 | 195 | 1.0 | 5.0 | 0.00 | 0.60 | 0.60 | 82 | 1004.2 |
| 20260903020606 | 61 | 208 | 1.0 | 3.0 | 0.00 | 0.60 | 0.60 | 82 | 1004.2 |
| 20260903020106 | 61 | 232 | 1.0 | 3.0 | 0.00 | 0.60 | 0.60 | 82 | 1004.2 |
| 20260903015604 | 61 | 231 | 2.0 | 3.0 | 0.00 | 0.60 | 0.60 | 82 | 1004.1 |
| 20260903015106 | 61 | 226 | 1.0 | 5.0 | 0.00 | 0.60 | 0.60 | 82 | 1004.1 |
| 20260903014607 | 62 | 232 | 2.0 | 5.0 | 0.00 | 0.60 | 0.60 | 82 | 1004.2 |
| 20260903014107 | 62 | 213 | 1.0 | 3.0 | 0.00 | 0.60 | 0.60 | 82 | 1004.2 |
| 20260903013605 | 62 | 228 | 1.0 | 3.0 | 0.00 | 0.60 | 0.60 | 82 | 1004.2 |
| 20260903013105 | 62 | 195 | 1.0 | 3.0 | 0.00 | 0.60 | 0.60 | 82 | 1004.2 |
| 20260903012106 | 62 | 203 | 1.0 | 3.0 | 0.00 | 0.60 | 0.60 | 81 | 1004.2 |
| 20260903011633 | 62 | 327 | 0.0 | 3.0 | 0.00 | 0.60 | 0.60 | 80 | 1004.2 |
| 20260903011104 | 62 | 215 | 1.0 | 3.0 | 0.00 | 0.60 | 0.60 | 80 | 1004.2 |
| 20260903010605 | 62 | 213 | 1.0 | 3.0 | 0.00 | 0.60 | 0.60 | 80 | 1004.2 |
| 20260903010105 | 62 | 211 | 1.0 | 3.0 | 0.00 | 0.60 | 0.60 | 81 | 1004.2 |
| 20260903005604 | 63 | 216 | 1.0 | 6.0 | 0.00 | 0.60 | 0.60 | 81 | 1004.1 |
| 20260903005105 | 63 | 215 | 1.0 | 6.0 | 0.00 | 0.60 | 0.60 | 81 | 1004.1 |
| 20260903004605 | 63 | 197 | 2.0 | 6.0 | 0.00 | 0.60 | 0.60 | 82 | 1004.1 |
| 20260903004106 | 63 | 212 | 1.0 | 3.0 | 0.00 | 0.60 | 0.60 | 82 | 1004.1 |
| 20260903003604 | 63 | 210 | 1.0 | 3.0 | 0.00 | 0.60 | 0.60 | 82 | 1004.0 |
| 20260903003104 | 63 | 212 | 1.0 | 3.0 | 0.00 | 0.63 | 0.60 | 82 | 1004.0 |
| 20260903002605 | 63 | 213 | 1.0 | 3.0 | 0.00 | 0.63 | 0.60 | 82 | 1004.1 |
| 20260903002105 | 63 | 211 | 1.0 | 3.0 | 0.00 | 0.63 | 0.60 | 82 | 1003.9 |
| 20260903001604 | 63 | 210 | 1.0 | 3.0 | 0.00 | 0.63 | 0.60 | 82 | 1004.0 |
| 20260903001105 | 64 | 212 | 0.0 | 3.0 | 0.00 | 0.63 | 0.60 | 83 | 1003.9 |
| 20260903000604 | 64 | 218 | 1.0 | 3.0 | 0.00 | 0.63 | 0.60 | 83 | 1003.9 |
| 20260903000104 | 64 | 206 | 1.0 | 3.0 | 0.00 | 0.63 | 0.60 | 84 | 1003.8 |
| 20260902235604 | 64 | 211 | 1.0 | 5.0 | 0.00 | 0.63 | 0.60 | 84 | 1003.6 |
| 20260902235104 | 63 | 195 | 1.0 | 5.0 | 0.00 | 0.63 | 0.60 | 84 | 1003.7 |
| 20260902234606 | 63 | 208 | 1.0 | 3.0 | 0.00 | 0.63 | 0.60 | 85 | 1003.6 |
| 20260902234106 | 63 | 211 | 1.0 | 3.0 | 0.00 | 0.63 | 0.60 | 85 | 1003.6 |
| 20260902233604 | 64 | 205 | 1.0 | 5.0 | 0.00 | 0.63 | 0.60 | 86 | 1003.5 |
| 20260902233115 | 64 | 210 | 2.0 | 5.0 | 0.00 | 0.63 | 0.60 | 87 | 1003.6 |
| 20260902232604 | 63 | 222 | 2.0 | 5.0 | 0.00 | 0.63 | 0.60 | 87 | 1003.6 |
| 20260902232110 | 63 | 209 | 1.0 | 3.0 | 0.00 | 0.63 | 0.60 | 88 | 1003.4 |
| 20260902231612 | 63 | 209 | 1.0 | 3.0 | 0.00 | 0.63 | 0.60 | 89 | 1003.4 |
| 20260902231105 | 63 | 200 | 1.0 | 3.0 | 0.00 | 0.63 | 0.60 | 89 | 1003.3 |
| 20260902230614 | 63 | 195 | 1.0 | 3.0 | 0.00 | 0.63 | 0.60 | 90 | 1003.2 |
| 20260902230105 | 63 | 213 | 2.0 | 3.0 | 0.00 | 0.63 | 0.60 | 90 | 1003.1 |
| 20260902225109 | 63 | 213 | 1.0 | 3.0 | 0.00 | 0.63 | 0.60 | 91 | 1003.0 |
| 20260902224604 | 63 | 213 | 1.0 | 3.0 | 0.00 | 0.63 | 0.60 | 91 | 1002.9 |
| 20260902224105 | 62 | 203 | 1.0 | 3.0 | 0.00 | 0.63 | 0.60 | 91 | 1002.9 |